Overview Statistics Trail Chart Weather Telemetry Raw packets
 

This is the latest recevied weather packets stored in our database for station/object DN9CHO-13. If no packets are shown the sender has not sent any weather packets the latest 10 day(s).

<< 38 39 40 41 42 43 44 >>
Time Temp. Humidity Pressure Rain* Wind** Luminosity Snow
1787998519 21.67° C 64% 1015 hPa 0 mm - 22 W/m² -
1787997915 21.67° C 65% 1015 hPa 0 mm - 22 W/m² -
1787997332 21.67° C 66% 1015 hPa 0 mm - 21 W/m² -
1787996728 21.67° C 67% 1015.1 hPa 0 mm - 16 W/m² -
1787996124 21.67° C 67% 1015.2 hPa 0 mm - 17 W/m² -
1787995521 21.11° C 68% 1015.2 hPa 0 mm - 12 W/m² -
1787994917 21.11° C 69% 1015.3 hPa 0 mm - 9 W/m² -
1787994334 21.11° C 68% 1015.2 hPa 0 mm - 5 W/m² -
1787993730 21.11° C 69% 1015.2 hPa 0 mm - 5 W/m² -
1787993126 20.56° C 71% 1015.2 hPa 0 mm - 5 W/m² -
1787992523 20.56° C 72% 1015.1 hPa 0 mm - 4 W/m² -
1787991919 20.56° C 73% 1015.2 hPa 0 mm - 4 W/m² -
1787991315 20° C 73% 1015 hPa 0 mm - 4 W/m² -
1787990732 20° C 73% 1015.1 hPa 0 mm - 4 W/m² -
1787990128 19.44° C 75% 1015 hPa 0 mm - 3 W/m² -
1787989524 19.44° C 77% 1015.1 hPa 0 mm - 3 W/m² -
1787988921 18.89° C 78% 1015 hPa 0 mm - 3 W/m² -
1787988317 18.89° C 79% 1014.9 hPa 0 mm - 3 W/m² -
1787987733 17.78° C 81% 1014.9 hPa 0 mm - 3 W/m² -
1787987130 17.78° C 82% 1015 hPa 0 mm - 3 W/m² -
1787986526 17.22° C 83% 1015 hPa 0 mm - 3 W/m² -
1787985922 17.22° C 84% 1015.1 hPa 0 mm - 2 W/m² -
1787985319 16.67° C 85% 1015 hPa 0 mm - 4 W/m² -
1787984735 16.11° C 90% 1014.9 hPa 0 mm - 4 W/m² -
1787984132 15.56° C 91% 1014.9 hPa 0 mm - 2 W/m² -

* Rain latest hour (hover to see other rain measurements)
** Current wind speed in m/s (hover to see current wind gust speed)